[[{"header":{"parameterUnit":"m.s-1","parameterCategory":2,"la1":30.2991,"la2":30.254,"lo1":-89.0895,"lo2":-89.0444,"dy":0.0017,"dx":0.0017,"nx":28,"ny":28,"refTime":"2025-04-12T09:00:00:Z","depth":"0","parameterNumber":2,"parameterNumberName":"U-component_of_CURRENTS"},"data":[0,0,0,0,0,0,0,0,0,0,0,0,0,0,0,0,0,0,0,0,0,0,0,0,0,0,0,0,0,0,0,0,0,0,0,0,0,0,0,0,0,0,0,0,0,0,0,0,0,0,0,0,0,0,0,0,0,0,0.2033,0.2033,0,0.2057,0.2057,0.2057,0.2051,0.2051,0.2051,0.2051,0.2005,0.2004,0.2003,0,0,0,0,0,0,0,0,0,0,0,0,0,0.1961,0.1962,0.2033,0.2034,0.2034,0.2057,0.2057,0.2057,0.2051,0.2051,0.2051,0.205,0.2005,0.2004,0.2002,0,0,0,0,0,0,0,0,0,0,0,0,0,0.1987,0.1962,0.2033,0.2036,0.2037,0.2057,0.2057,0.2057,0.2051,0.2051,0.2051,0.205,0.2005,0.2004,0.2002,0.1999,0,0,0.1998,0.1997,0,0,0,0,0,0,0,0,0.1985,0.1989,0.2035,0.2036,0.2037,0.2053,0.2015,0.2035,0.2051,0.2043,0.2051,0.205,0.2016,0.2014,0.2016,0.1997,0.1995,0.1997,0.1997,0.1996,0.1995,0,0,0,0,0,0,0,0.1983,0.1988,0.204,0.2036,0.2037,0.2029,0.2032,0.2019,0.2028,0.2043,0.2044,0.2051,0.2016,0.2018,0.2015,0.1994,0.1998,0.1996,0.1995,0.1995,0.2017,0.2018,0,0,0,0,0,0,0.1988,0.1986,0.2039,0.2041,0.2013,0.2031,0.2035,0.2046,0.2029,0.2028,0.2051,0.2051,0.2021,0.2017,0.2013,0.2056,0.1996,0.1994,0.1994,0.2015,0.2017,0.2019,0,0,0,0,0,0,0.1986,0.1993,0.2038,0.2016,0.2021,0.2033,0.2046,0.2047,0.2055,0.2037,0.2033,0.206,0.202,0.2015,0.2018,0.2052,0.1994,0.1992,0.2013,0.2016,0.2018,0.211,0,0,0,0,0,0,0.1984,0.1992,0.2,0.2016,0.2023,0.2061,0.2046,0.2048,0.2061,0.2061,0.2042,0.2038,0.202,0.2021,0.2017,0.2049,0.1991,0.2012,0.2014,0.2017,0.2105,0.2115,0.2124,0,0,0,0,0,0.1982,0.1999,0.2,0.2007,0.2035,0.2062,0.2065,0.207,0.2062,0.2074,0.2065,0.2039,0.2036,0.2021,0.2015,0.2048,0.201,0.2014,0.2017,0.2101,0.2113,0.2124,0,0,0,0,0,0,0.1972,0.2001,0.2002,0.2027,0.2048,0.2063,0.2075,0.2076,0.2079,0.2076,0.2052,0.2048,0.2064,0.2042,0.2026,0.2063,0.2021,0.2023,0.2086,0.2098,0.2107,0.2113,0.199,0,0,0,0,0,0.1974,0.1995,0.2019,0.2039,0.2051,0.2063,0.2073,0.208,0.2086,0.2087,0.2077,0.2069,0.2074,0.2074,0.2067,0.2083,0.2103,0.2102,0.2112,0.212,0.2122,0.2185,0.2201,0.203,0.203,0.203,0,0,0.1974,0.1995,0.2004,0.2039,0.2052,0.208,0.2068,0.2093,0.2116,0.208,0.2103,0.2097,0.2084,0.2109,0.2115,0.2095,0.2187,0.2124,0.2131,0.2129,0.219,0.2207,0.2222,0.2032,0.2032,0.2031,0,0,0.1989,0.2006,0.2028,0.205,0.2082,0.2095,0.2106,0.2128,0.2138,0.2159,0.2148,0.2166,0.2158,0.2171,0.2173,0.2228,0.2232,0.2226,0.2281,0.2343,0.2358,0.2371,0.2456,0.2475,0.2234,0.2234,0.2234,0,0.1985,0.2021,0.2038,0.2069,0.2091,0.2105,0.2135,0.2155,0.2175,0.2194,0.2176,0.2207,0.2192,0.2242,0.2263,0.225,0.2293,0.2241,0.2357,0.237,0.2382,0.2465,0.2486,0.2239,0.2239,0.2238,0.2238,0,0.2019,0.2049,0.2067,0.2111,0.2136,0.2167,0.2198,0.2226,0.2237,0.2256,0.2302,0.2298,0.232,0.2326,0.2308,0.239,0.2398,0.2362,0.2332,0.2405,0.2488,0.2508,0.2246,0.2244,0.2243,0.2242,0,0,0.2008,0.2075,0.2082,0.211,0.2162,0.2188,0.2237,0.2289,0.2329,0.2353,0.2411,0.2427,0.2433,0.2435,0.2431,0.248,0.2609,0.2461,0.2462,0.2552,0.2779,0.2834,0.2861,0.2599,0.2602,0.2605,0.2817,0,0.2029,0.209,0.2119,0.2178,0.2213,0.2248,0.2294,0.2342,0.2379,0.2439,0.2466,0.2507,0.2475,0.2494,0.2546,0.2583,0.266,0.2556,0.2687,0.2691,0.2737,0.2885,0.28,0.2986,0.2836,0.284,0.2842,0,0.2052,0.2095,0.2149,0.2221,0.2239,0.2272,0.2353,0.2397,0.2483,0.2511,0.257,0.2592,0.2676,0.2626,0.2766,0.2706,0.2756,0.2785,0.2793,0.2821,0.2784,0.288,0.3027,0.2931,0.2872,0.287,0.2868,0,0.2041,0.2117,0.2161,0.2185,0.2264,0.2294,0.2338,0.2417,0.2466,0.2562,0.262,0.2703,0.2767,0.2834,0.2909,0.2848,0.3072,0.2991,0.3099,0.3104,0.3044,0.3039,0.3114,0.3106,0.3106,0.3105,0.3105,0,0.2054,0.209,0.2158,0.2182,0.224,0.2294,0.2358,0.2415,0.2508,0.2593,0.2657,0.2753,0.2821,0.2951,0.2985,0.3143,0.3148,0.3156,0.3177,0.3078,0.3074,0.2992,0.2939,0.3113,0.3112,0.311,0.3109,0,0.2031,0.2076,0.2131,0.221,0.2233,0.2273,0.2359,0.2413,0.2508,0.2629,0.2669,0.2826,0.3011,0.311,0.3251,0.3266,0.3309,0.3425,0.3325,0.3331,0.3306,0.3262,0.3271,0.3171,0.3579,0.3582,0.3584,0,0.2022,0.2048,0.2132,0.2163,0.2195,0.2257,0.23,0.2392,0.2459,0.2681,0.2749,0.2973,0.3134,0.3399,0.3476,0.3617,0.3454,0.3597,0.345,0.335,0.3314,0.3144,0.3042,0.3421,0.3422,0.3423,0.3423,0,0.2005,0.2034,0.2077,0.2145,0.219,0.2244,0.2321,0.237,0.2513,0.2635,0.2839,0.2993,0.33,0.343,0.3635,0.3681,0.3434,0.3618,0.3524,0.3235,0.3042,0.2938,0.325,0.343,0.3429,0.3429,0.3428,0.3428,0.1987,0.201,0.2072,0.213,0.2178,0.2232,0.2256,0.2357,0.2467,0.2649,0.2837,0.3042,0.3302,0.359,0.3624,0.3617,0.3539,0.3502,0.3476,0.3327,0.3164,0.3525,0.3711,0.3712,0.3712,0.3713,0.3714,0,0.1975,0.2007,0.2058,0.212,0.2149,0.2194,0.227,0.229,0.2392,0.26,0.2772,0.3054,0.3249,0.3411,0.3542,0.3463,0.3251,0.337,0.3067,0.2984,0.3334,0.3258,0.3339,0.3339,0.3339,0.3339,0.3339,0.334,0.1977,0.2011,0.2038,0.2079,0.2113,0.2129,0.2156,0.2202,0.2313,0.2481,0.2632,0.2815,0.3141,0.3408,0.339,0.3307,0.3005,0.2943,0.2879,0.3088,0.3094,0.3099,0.3013,0.3042,0.3042,0.2378,0.2374,0.237]},{"header":{"parameterUnit":"m.s-1","parameterCategory":2,"la1":30.2991,"la2":30.254,"lo1":-89.0895,"lo2":-89.0444,"dy":0.0017,"dx":0.0017,"nx":28,"ny":28,"refTime":"2025-04-12T09:00:00:Z","depth":"0","parameterNumber":3,"parameterNumberName":"V-component_of_CURRENTS"},"data":[0,0,0,0,0,0,0,0,0,0,0,0,0,0,0,0,0,0,0,0,0,0,0,0,0,0,0,0,0,0,0,0,0,0,0,0,0,0,0,0,0,0,0,0,0,0,0,0,0,0,0,0,0,0,0,0,0,0,-0.0522,-0.0523,0,-0.0616,-0.0617,-0.0619,-0.0681,-0.0681,-0.0682,-0.0682,-0.085,-0.0854,-0.0859,0,0,0,0,0,0,0,0,0,0,0,0,0,-0.0447,-0.0447,-0.0522,-0.0523,-0.0524,-0.0616,-0.0618,-0.0619,-0.0681,-0.0681,-0.0682,-0.0682,-0.0849,-0.0854,-0.0859,0,0,0,0,0,0,0,0,0,0,0,0,0,-0.0505,-0.0448,-0.0522,-0.0565,-0.057,-0.0616,-0.0618,-0.0619,-0.0681,-0.0681,-0.0682,-0.0682,-0.0847,-0.0853,-0.086,-0.0888,0,0,-0.0879,-0.0881,0,0,0,0,0,0,0,0,-0.0501,-0.0507,-0.0558,-0.0562,-0.0568,-0.0637,-0.0653,-0.0713,-0.0681,-0.064,-0.0682,-0.0683,-0.0785,-0.0796,-0.0813,-0.0896,-0.0903,-0.0879,-0.0883,-0.0886,-0.0888,0,0,0,0,0,0,0,-0.0497,-0.0504,-0.056,-0.0559,-0.0565,-0.0598,-0.0606,-0.0664,-0.071,-0.0643,-0.0648,-0.0657,-0.0788,-0.0807,-0.0818,-0.0906,-0.0879,-0.0885,-0.0889,-0.0891,-0.1063,-0.1063,0,0,0,0,0,0,-0.048,-0.05,-0.0557,-0.0563,-0.0534,-0.0599,-0.0608,-0.0615,-0.0708,-0.0722,-0.0656,-0.0659,-0.0796,-0.081,-0.0824,-0.0874,-0.0886,-0.0892,-0.0895,-0.1062,-0.1063,-0.1064,0,0,0,0,0,0,-0.0478,-0.0485,-0.0553,-0.0533,-0.0544,-0.0599,-0.0606,-0.0616,-0.0636,-0.0717,-0.0733,-0.0665,-0.0797,-0.0815,-0.0873,-0.088,-0.0894,-0.09,-0.1061,-0.1062,-0.1063,-0.0967,0,0,0,0,0,0,-0.0476,-0.0483,-0.0482,-0.0532,-0.0544,-0.0574,-0.0606,-0.0618,-0.064,-0.0645,-0.073,-0.0746,-0.0799,-0.0863,-0.0879,-0.0889,-0.0905,-0.106,-0.1061,-0.1063,-0.0969,-0.0965,-0.0961,0,0,0,0,0,-0.0473,-0.0468,-0.0481,-0.0488,-0.0541,-0.0574,-0.0583,-0.0625,-0.064,-0.0645,-0.0702,-0.0743,-0.0885,-0.0869,-0.0887,-0.0899,-0.1059,-0.1061,-0.1063,-0.0971,-0.0966,-0.0961,0,0,0,0,0,0,-0.043,-0.0476,-0.0491,-0.0499,-0.053,-0.0584,-0.0592,-0.0619,-0.0667,-0.0673,-0.0748,-0.0768,-0.0821,-0.0877,-0.0857,-0.0957,-0.0982,-0.0988,-0.0906,-0.0902,-0.0898,-0.086,-0.091,0,0,0,0,0,-0.042,-0.0432,-0.0475,-0.048,-0.0492,-0.0539,-0.0557,-0.0584,-0.0632,-0.0653,-0.0712,-0.0783,-0.0844,-0.0883,-0.0943,-0.0995,-0.1016,-0.102,-0.1016,-0.1011,-0.0995,-0.1043,-0.1041,-0.107,-0.107,-0.1069,0,0,-0.0403,-0.043,-0.0436,-0.0472,-0.0499,-0.0513,-0.0552,-0.0573,-0.0587,-0.0666,-0.0704,-0.0765,-0.0853,-0.0907,-0.0938,-0.0955,-0.1009,-0.1014,-0.1009,-0.0995,-0.1045,-0.1041,-0.1038,-0.1071,-0.1071,-0.107,0,0,-0.0377,-0.0399,-0.04,-0.0423,-0.0459,-0.0489,-0.0491,-0.0541,-0.0565,-0.0608,-0.0669,-0.0725,-0.0824,-0.0881,-0.0925,-0.0938,-0.098,-0.0972,-0.0927,-0.0973,-0.097,-0.0968,-0.0954,-0.0952,-0.0977,-0.0977,-0.0977,0,-0.0352,-0.0363,-0.0404,-0.041,-0.042,-0.0473,-0.047,-0.0504,-0.0567,-0.0582,-0.061,-0.0736,-0.0808,-0.0871,-0.088,-0.0925,-0.0941,-0.0931,-0.0963,-0.0962,-0.0961,-0.0949,-0.0947,-0.0972,-0.0973,-0.0973,-0.0974,0,-0.0333,-0.0338,-0.0338,-0.0364,-0.0379,-0.0386,-0.0431,-0.0451,-0.0487,-0.0524,-0.0581,-0.0673,-0.0745,-0.0787,-0.084,-0.088,-0.0886,-0.0941,-0.0962,-0.0951,-0.094,-0.0939,-0.0966,-0.0968,-0.0969,-0.097,0,0,-0.0283,-0.0316,-0.0315,-0.0314,-0.0353,-0.0362,-0.0378,-0.0406,-0.0405,-0.048,-0.0486,-0.0602,-0.0643,-0.0696,-0.0772,-0.082,-0.0823,-0.0874,-0.0879,-0.0835,-0.088,-0.0828,-0.0823,-0.0888,-0.0888,-0.0889,-0.0859,0,-0.0251,-0.0244,-0.0273,-0.0262,-0.0259,-0.03,-0.0303,-0.0335,-0.0372,-0.0392,-0.0485,-0.0527,-0.0614,-0.0642,-0.0703,-0.0794,-0.0825,-0.0823,-0.092,-0.0921,-0.0857,-0.0823,-0.0801,-0.0769,-0.0859,-0.0859,-0.0859,0,-0.0221,-0.0222,-0.0201,-0.0202,-0.0202,-0.0201,-0.0202,-0.0216,-0.0259,-0.0287,-0.0345,-0.041,-0.0484,-0.0562,-0.0687,-0.0682,-0.0766,-0.0836,-0.0838,-0.0823,-0.087,-0.0807,-0.0766,-0.0951,-0.0859,-0.0859,-0.0859,0,-0.0167,-0.0168,-0.0146,-0.015,-0.0161,-0.0149,-0.0155,-0.018,-0.0169,-0.0217,-0.0203,-0.0313,-0.0341,-0.0478,-0.0609,-0.0656,-0.0722,-0.0812,-0.0834,-0.083,-0.0845,-0.0841,-0.0974,-0.0893,-0.0893,-0.0893,-0.0893,0,-0.0124,-0.0107,-0.0116,-0.0107,-0.0061,-0.0092,-0.0048,-0.0068,-0.007,-0.0018,-0.0142,-0.0113,-0.0326,-0.0388,-0.0546,-0.065,-0.0672,-0.0796,-0.0821,-0.0807,-0.0801,-0.0992,-0.1107,-0.0892,-0.0892,-0.0892,-0.0892,0,-0.0068,-0.0079,-0.0052,-0.0049,-0.0037,-0.0006,0.0031,0.0067,0.0051,0.0121,0.0118,0.0046,-0.002,-0.0199,-0.0383,-0.0532,-0.0752,-0.0705,-0.0634,-0.0651,-0.0864,-0.0973,-0.1103,-0.1165,-0.0731,-0.0729,-0.0728,0,-0.0037,-0.0018,0.0003,0.004,0.0047,0.009,0.0136,0.0126,0.0185,0.0243,0.0301,0.026,0.0284,0.0055,-0.022,-0.0438,-0.0658,-0.0588,-0.0695,-0.0841,-0.0984,-0.1073,-0.1123,-0.0666,-0.0664,-0.0663,-0.0662,0,0.003,0.0034,0.0059,0.0136,0.0187,0.0248,0.0319,0.0389,0.0428,0.0515,0.0645,0.0674,0.0474,0.028,-0.0039,-0.0242,-0.0706,-0.0566,-0.077,-0.0968,-0.1026,-0.1106,-0.0684,-0.065,-0.0651,-0.0652,-0.0653,-0.0653,0.0088,0.013,0.0175,0.0252,0.0317,0.043,0.0513,0.0623,0.0767,0.0949,0.094,0.1043,0.0689,0.0264,-0.002,-0.0568,-0.0601,-0.0764,-0.0883,-0.0957,-0.103,-0.0532,-0.0505,-0.0505,-0.0505,-0.0506,-0.0506,0,0.0179,0.0228,0.03,0.0397,0.0499,0.0507,0.066,0.0771,0.0994,0.1175,0.1318,0.1217,0.0787,0.0278,-0.0438,-0.0822,-0.1006,-0.106,-0.1231,-0.1269,-0.0872,-0.0884,-0.0874,-0.0874,-0.0874,-0.0874,-0.0874,-0.0874,0.0235,0.0328,0.0366,0.0552,0.0628,0.0777,0.0878,0.1056,0.1209,0.1468,0.1557,0.1573,0.116,-0.0117,-0.1004,-0.1222,-0.1528,-0.1568,-0.1711,-0.1508,-0.1492,-0.1476,-0.1517,-0.164,-0.1641,-0.2061,-0.2066,-0.2069]}],[{"header":{"parameterUnit":"m.s-1","parameterCategory":2,"la1":30.2991,"la2":30.254,"lo1":-89.0895,"lo2":-89.0444,"dy":0.0017,"dx":0.0017,"nx":28,"ny":28,"refTime":"2025-04-12T09:00:00:Z","depth":"2","parameterNumber":2,"parameterNumberName":"U-component_of_CURRENTS"},"data":[0,0,0,0,0,0,0,0,0,0,0,0,0,0,0,0,0,0,0,0,0,0,0,0,0,0,0,0,0,0,0,0,0,0,0,0,0,0,0,0,0,0,0,0,0,0,0,0,0,0,0,0,0,0,0,0,0,0,0.1811,0.1811,0,0.1833,0.1834,0.1835,0.1854,0.1854,0.1854,0.1853,0.1837,0.1836,0.1836,0,0,0,0,0,0,0,0,0,0,0,0,0,0.1762,0.1763,0.1811,0.1811,0.1811,0.1833,0.1834,0.1835,0.1854,0.1854,0.1853,0.1853,0.1837,0.1836,0.1836,0,0,0,0,0,0,0,0,0,0,0,0,0,0.1788,0.1763,0.1811,0.182,0.182,0.1833,0.1834,0.1835,0.1854,0.1854,0.1853,0.1853,0.1837,0.1836,0.1836,0.1839,0,0,0.1835,0.1835,0,0,0,0,0,0,0,0,0.1786,0.179,0.1818,0.1819,0.182,0.1837,0.181,0.1833,0.1854,0.1846,0.1853,0.1853,0.183,0.1831,0.1842,0.1838,0.1837,0.1835,0.1834,0.1834,0.1834,0,0,0,0,0,0,0,0.1784,0.1789,0.1824,0.1818,0.1819,0.1814,0.1819,0.1815,0.1842,0.1846,0.1847,0.1843,0.1831,0.1842,0.1842,0.1837,0.1835,0.1834,0.1834,0.1834,0.1887,0.1889,0,0,0,0,0,0,0.1775,0.1788,0.1823,0.1824,0.1797,0.1815,0.182,0.1835,0.1843,0.1843,0.1843,0.1843,0.1843,0.1842,0.1841,0.1888,0.1834,0.1834,0.1834,0.1885,0.1887,0.1889,0,0,0,0,0,0,0.1774,0.1779,0.1822,0.1802,0.1806,0.1816,0.1833,0.1836,0.1855,0.184,0.184,0.1859,0.1843,0.1841,0.1852,0.1886,0.1834,0.1833,0.1883,0.1886,0.1888,0.1954,0,0,0,0,0,0,0.1773,0.1779,0.1788,0.1802,0.1807,0.1839,0.1833,0.1836,0.185,0.1851,0.1853,0.1851,0.1843,0.1853,0.1851,0.1884,0.1833,0.1881,0.1885,0.1887,0.195,0.1959,0.1966,0,0,0,0,0,0.1772,0.1779,0.1789,0.1793,0.182,0.1839,0.1843,0.185,0.1851,0.1866,0.1869,0.1852,0.1872,0.1853,0.1851,0.1885,0.188,0.1884,0.1887,0.1946,0.1957,0.1966,0,0,0,0,0,0,0.1758,0.1782,0.1793,0.1807,0.1827,0.1841,0.185,0.1857,0.1873,0.1875,0.1864,0.1863,0.1889,0.1877,0.1856,0.1912,0.1877,0.188,0.1922,0.1932,0.194,0.1952,0.1833,0,0,0,0,0,0.1761,0.1779,0.1799,0.1813,0.1825,0.1842,0.185,0.186,0.1871,0.188,0.1883,0.1889,0.1903,0.1908,0.1914,0.1936,0.196,0.196,0.1968,0.1975,0.1985,0.2055,0.2071,0.1901,0.1901,0.1901,0,0,0.176,0.1773,0.1784,0.1811,0.183,0.1855,0.1849,0.1869,0.1896,0.1873,0.1912,0.1914,0.1915,0.1947,0.1958,0.194,0.204,0.198,0.1985,0.1992,0.2061,0.2077,0.2092,0.1904,0.1903,0.1903,0,0,0.1763,0.1783,0.1802,0.1826,0.1851,0.1863,0.1872,0.1899,0.1922,0.1952,0.1951,0.1976,0.1987,0.2007,0.2014,0.2069,0.208,0.2073,0.2123,0.2191,0.2206,0.2219,0.2287,0.2306,0.2077,0.2077,0.2077,0,0.1758,0.1791,0.1809,0.1837,0.1856,0.187,0.19,0.1927,0.1955,0.1983,0.1971,0.2028,0.2021,0.2076,0.2098,0.2088,0.213,0.2084,0.2203,0.2216,0.2229,0.2295,0.2315,0.2081,0.2081,0.208,0.208,0,0.1785,0.1813,0.1827,0.1872,0.1896,0.1922,0.1959,0.1994,0.2015,0.2042,0.2104,0.211,0.2145,0.2153,0.2138,0.2227,0.223,0.2205,0.2178,0.225,0.2315,0.2335,0.2086,0.2085,0.2084,0.2083,0,0,0.1775,0.1832,0.184,0.1873,0.1919,0.1944,0.1998,0.2054,0.2103,0.2138,0.2204,0.2236,0.2247,0.2257,0.2257,0.2311,0.2431,0.2299,0.2301,0.2368,0.2599,0.2555,0.2572,0.2433,0.2437,0.2439,0.2615,0,0.1793,0.1844,0.1868,0.1927,0.1966,0.2003,0.2053,0.2108,0.2155,0.2222,0.2258,0.2312,0.2287,0.2313,0.2366,0.2409,0.2483,0.2386,0.2518,0.2522,0.2476,0.2593,0.2389,0.2524,0.2634,0.2637,0.2639,0,0.1815,0.1855,0.1904,0.1976,0.1996,0.2026,0.2117,0.2166,0.2258,0.2297,0.2363,0.2393,0.2478,0.2441,0.2581,0.2525,0.2576,0.2609,0.2616,0.2564,0.2515,0.2467,0.2555,0.2672,0.2669,0.2667,0.2664,0,0.1809,0.1879,0.1915,0.1942,0.202,0.2056,0.21,0.219,0.2244,0.2354,0.241,0.2501,0.2568,0.2639,0.2707,0.2662,0.2864,0.2804,0.2823,0.2821,0.2666,0.2643,0.2928,0.2928,0.2928,0.2927,0.2927,0,0.1814,0.1853,0.1916,0.1945,0.2009,0.2063,0.2135,0.22,0.229,0.2375,0.2448,0.2539,0.2627,0.274,0.2771,0.2872,0.2926,0.2868,0.2876,0.2683,0.2662,0.2788,0.2769,0.2934,0.2932,0.2931,0.293,0,0.1801,0.1829,0.1892,0.1977,0.2003,0.2053,0.214,0.2201,0.2292,0.2409,0.2452,0.2605,0.276,0.2846,0.2987,0.2969,0.3049,0.3072,0.2843,0.2819,0.2944,0.2927,0.3113,0.3113,0.3113,0.3113,0.3113,0,0.179,0.1822,0.1912,0.1946,0.198,0.2053,0.2105,0.219,0.2258,0.2453,0.2514,0.2707,0.2815,0.3002,0.3033,0.3111,0.313,0.2953,0.2816,0.2981,0.297,0.2952,0.2935,0.2648,0.2644,0.2642,0.2639,0,0.1798,0.1826,0.1874,0.1955,0.2004,0.2064,0.2146,0.2186,0.2314,0.2407,0.257,0.2669,0.2867,0.2856,0.2958,0.2963,0.291,0.2894,0.3165,0.262,0.2554,0.2538,0.2535,0.2612,0.2615,0.2617,0.2618,0.2619,0.1801,0.1832,0.1894,0.1965,0.202,0.2076,0.2099,0.2191,0.227,0.2371,0.2508,0.257,0.2651,0.2688,0.2669,0.2671,0.2843,0.2712,0.2717,0.2727,0.2628,0.2564,0.2608,0.2611,0.2613,0.2615,0.2617,0,0.1801,0.1842,0.191,0.197,0.2001,0.2054,0.2127,0.2121,0.2186,0.2265,0.2338,0.2188,0.2235,0.232,0.2291,0.2325,0.226,0.2238,0.212,0.2152,0.2179,0.2046,0.1875,0.1872,0.1869,0.1867,0,0,0.1802,0.1843,0.1881,0.193,0.1971,0.1967,0.1987,0.1992,0.2017,0.1955,0.1934,0.2089,0.2232,0.1983,0.2004,0.1928,0.2004,0.1868,0.2475,0.2366,0.2388,0.2486,0.2323,0,0,0,0,0]},{"header":{"parameterUnit":"m.s-1","parameterCategory":2,"la1":30.2991,"la2":30.254,"lo1":-89.0895,"lo2":-89.0444,"dy":0.0017,"dx":0.0017,"nx":28,"ny":28,"refTime":"2025-04-12T09:00:00:Z","depth":"2","parameterNumber":3,"parameterNumberName":"V-component_of_CURRENTS"},"data":[0,0,0,0,0,0,0,0,0,0,0,0,0,0,0,0,0,0,0,0,0,0,0,0,0,0,0,0,0,0,0,0,0,0,0,0,0,0,0,0,0,0,0,0,0,0,0,0,0,0,0,0,0,0,0,0,0,0,-0.0202,-0.0202,0,-0.0282,-0.0284,-0.0285,-0.0361,-0.0361,-0.0361,-0.0362,-0.0483,-0.0486,-0.0489,0,0,0,0,0,0,0,0,0,0,0,0,0,-0.0163,-0.0164,-0.0202,-0.0202,-0.0203,-0.0282,-0.0284,-0.0286,-0.0361,-0.0361,-0.0361,-0.0362,-0.0482,-0.0485,-0.0489,0,0,0,0,0,0,0,0,0,0,0,0,0,-0.0214,-0.0165,-0.0202,-0.0243,-0.0247,-0.0281,-0.0284,-0.0286,-0.0361,-0.0361,-0.0362,-0.0362,-0.0481,-0.0485,-0.049,-0.0514,0,0,-0.0504,-0.0506,0,0,0,0,0,0,0,0,-0.0211,-0.0216,-0.0237,-0.024,-0.0245,-0.0304,-0.0314,-0.0361,-0.0361,-0.0327,-0.0362,-0.0362,-0.0421,-0.043,-0.0457,-0.052,-0.0525,-0.0504,-0.0507,-0.0509,-0.051,0,0,0,0,0,0,0,-0.0207,-0.0213,-0.0243,-0.0237,-0.0242,-0.0273,-0.0281,-0.0324,-0.038,-0.033,-0.0334,-0.0328,-0.0425,-0.0453,-0.046,-0.0527,-0.0504,-0.0508,-0.0511,-0.0513,-0.0649,-0.065,0,0,0,0,0,0,-0.0177,-0.021,-0.024,-0.0244,-0.0218,-0.0273,-0.0283,-0.0292,-0.0378,-0.0389,-0.0328,-0.0331,-0.0444,-0.0455,-0.0465,-0.0494,-0.0509,-0.0513,-0.0516,-0.0648,-0.0649,-0.065,0,0,0,0,0,0,-0.0176,-0.0179,-0.0237,-0.0221,-0.0229,-0.0272,-0.0283,-0.0293,-0.0323,-0.0374,-0.0388,-0.0346,-0.0445,-0.0458,-0.05,-0.05,-0.0516,-0.052,-0.0647,-0.0648,-0.0649,-0.0556,0,0,0,0,0,0,-0.0175,-0.0179,-0.018,-0.0219,-0.0229,-0.0248,-0.0282,-0.0294,-0.0315,-0.032,-0.0394,-0.0406,-0.0446,-0.0493,-0.0505,-0.0506,-0.0523,-0.0646,-0.0648,-0.0649,-0.0558,-0.0554,-0.055,0,0,0,0,0,-0.0174,-0.016,-0.018,-0.0183,-0.0227,-0.0246,-0.0255,-0.0292,-0.0315,-0.0323,-0.0373,-0.0404,-0.0512,-0.0497,-0.0511,-0.0514,-0.0645,-0.0647,-0.0649,-0.056,-0.0555,-0.0551,0,0,0,0,0,0,-0.0139,-0.0167,-0.0189,-0.0186,-0.0211,-0.0255,-0.0261,-0.0289,-0.0338,-0.0347,-0.0407,-0.0421,-0.0463,-0.0505,-0.0487,-0.0562,-0.0587,-0.0592,-0.0515,-0.0511,-0.0507,-0.0491,-0.0527,0,0,0,0,0,-0.013,-0.0136,-0.0166,-0.0166,-0.0176,-0.0223,-0.0236,-0.0261,-0.0302,-0.0325,-0.0377,-0.0436,-0.0483,-0.0506,-0.0559,-0.0591,-0.0616,-0.0608,-0.0604,-0.06,-0.06,-0.0643,-0.0641,-0.0656,-0.0656,-0.0656,0,0,-0.0118,-0.0131,-0.0137,-0.0159,-0.0188,-0.0194,-0.0234,-0.0248,-0.0261,-0.0329,-0.0371,-0.0424,-0.049,-0.0529,-0.0552,-0.0561,-0.0603,-0.0602,-0.0598,-0.06,-0.0644,-0.0643,-0.0641,-0.0657,-0.0657,-0.0657,0,0,-0.0088,-0.0109,-0.0106,-0.0124,-0.0147,-0.017,-0.0169,-0.0218,-0.0249,-0.0287,-0.0342,-0.0386,-0.0467,-0.0506,-0.0537,-0.0545,-0.0584,-0.0574,-0.0535,-0.0576,-0.0574,-0.0573,-0.0565,-0.0564,-0.0568,-0.0568,-0.0568,0,-0.0069,-0.0073,-0.0106,-0.0106,-0.011,-0.0154,-0.0149,-0.0184,-0.0241,-0.026,-0.0289,-0.0401,-0.0453,-0.0492,-0.0501,-0.0533,-0.0553,-0.0537,-0.0567,-0.0567,-0.0567,-0.056,-0.056,-0.0563,-0.0564,-0.0564,-0.0565,0,-0.0046,-0.0047,-0.0043,-0.006,-0.007,-0.0069,-0.0107,-0.0132,-0.0171,-0.0207,-0.0263,-0.0337,-0.0397,-0.0427,-0.0469,-0.0502,-0.0511,-0.0553,-0.0566,-0.0559,-0.0552,-0.0554,-0.0557,-0.0559,-0.056,-0.0561,0,0,-0.0009,-0.0021,-0.0022,-0.0021,-0.0043,-0.0046,-0.0061,-0.0083,-0.0086,-0.016,-0.0172,-0.0269,-0.031,-0.035,-0.0407,-0.0451,-0.046,-0.0502,-0.0507,-0.0471,-0.0519,-0.0505,-0.0505,-0.0512,-0.0512,-0.0513,-0.0497,0,0.0019,0.004,0.0024,0.0041,0.0046,0.0012,0.0012,-0.0018,-0.0056,-0.0079,-0.0159,-0.02,-0.0279,-0.0303,-0.0357,-0.0438,-0.0468,-0.0459,-0.0553,-0.0554,-0.0524,-0.0509,-0.0497,-0.0482,-0.0499,-0.0499,-0.0499,0,0.0046,0.0055,0.0083,0.0094,0.0095,0.0103,0.0099,0.0089,0.0049,0.0017,-0.0037,-0.01,-0.0164,-0.0239,-0.0355,-0.0348,-0.0428,-0.0493,-0.0495,-0.052,-0.0545,-0.0504,-0.0485,-0.0503,-0.0503,-0.0502,-0.0502,0,0.0087,0.01,0.0131,0.0129,0.0133,0.014,0.0143,0.0118,0.0125,0.0077,0.0084,-0.0013,-0.004,-0.0171,-0.0301,-0.0336,-0.0418,-0.0477,-0.0532,-0.053,-0.0558,-0.0558,-0.0566,-0.0566,-0.0566,-0.0566,-0.0566,0,0.0131,0.0149,0.0153,0.0162,0.0203,0.0185,0.0223,0.0205,0.0209,0.0253,0.0139,0.016,-0.0033,-0.0102,-0.0249,-0.037,-0.0373,-0.0515,-0.0533,-0.0522,-0.0519,-0.0584,-0.0587,-0.0565,-0.0565,-0.0566,-0.0566,0,0.017,0.0176,0.0205,0.0216,0.0223,0.0249,0.0286,0.0319,0.0307,0.0365,0.0359,0.0297,0.021,0.0037,-0.014,-0.0274,-0.0414,-0.0461,-0.0407,-0.042,-0.0509,-0.0507,-0.052,-0.052,-0.052,-0.0519,-0.0519,0,0.0196,0.0212,0.0239,0.0272,0.028,0.0315,0.0353,0.036,0.0414,0.0467,0.0519,0.0455,0.0435,0.0199,-0.0061,-0.0287,-0.0349,-0.0422,-0.0508,-0.0492,-0.0508,-0.0507,-0.0505,-0.049,-0.049,-0.0489,-0.0489,0,0.0237,0.0246,0.0275,0.0335,0.0382,0.0438,0.0501,0.0568,0.0616,0.068,0.078,0.0767,0.0541,0.0311,-0.0013,-0.0181,-0.0392,-0.0421,-0.0424,-0.0505,-0.0463,-0.0479,-0.0479,-0.0485,-0.0486,-0.0486,-0.0486,-0.0486,0.0273,0.031,0.0358,0.042,0.048,0.0582,0.0662,0.0761,0.0885,0.1009,0.0972,0.0957,0.0664,0.025,-0.0031,-0.0335,-0.0345,-0.0473,-0.0474,-0.0476,-0.0478,-0.0438,-0.0452,-0.0452,-0.0453,-0.0453,-0.0453,0,0.0335,0.0382,0.0442,0.054,0.0634,0.064,0.0782,0.0895,0.1087,0.1135,0.1193,0.0924,0.0642,0.0319,-0.0131,-0.0406,-0.0453,-0.0485,-0.0496,-0.0497,-0.0499,-0.0503,-0.0484,-0.0485,-0.0485,-0.0486,0,0,0.0379,0.0463,0.0498,0.0669,0.0739,0.09,0.1,0.1165,0.1246,0.1302,0.1262,0.1137,0.0737,0.0408,0.0028,-0.022,-0.0295,-0.0272,-0.0221,-0.0191,-0.0189,-0.0469,-0.0473,0,0,0,0,0]}],[{"header":{"parameterUnit":"m.s-1","parameterCategory":2,"la1":30.2991,"la2":30.254,"lo1":-89.0895,"lo2":-89.0444,"dy":0.0017,"dx":0.0017,"nx":28,"ny":28,"refTime":"2025-04-12T09:00:00:Z","depth":"4","parameterNumber":2,"parameterNumberName":"U-component_of_CURRENTS"},"data":[0,0,0,0,0,0,0,0,0,0,0,0,0,0,0,0,0,0,0,0,0,0,0,0,0,0,0,0,0,0,0,0,0,0,0,0,0,0,0,0,0,0,0,0,0,0,0,0,0,0,0,0,0,0,0,0,0,0,0.1005,0.1006,0,0.1076,0.1076,0.1077,0.1124,0.1125,0.1125,0.1126,0.1174,0.1175,0.1176,0,0,0,0,0,0,0,0,0,0,0,0,0,0.0894,0.0896,0.1005,0.1006,0.1007,0.1075,0.1076,0.1077,0.1124,0.1125,0.1126,0.1126,0.1174,0.1175,0.1176,0,0,0,0,0,0,0,0,0,0,0,0,0,0.0949,0.0896,0.1005,0.1041,0.1045,0.1075,0.1076,0.1077,0.1124,0.1125,0.1126,0.1126,0.1174,0.1175,0.1176,0.1166,0,0,0.1179,0.118,0,0,0,0,0,0,0,0,0.0946,0.0953,0.1034,0.1038,0.1043,0.1094,0.1055,0.1107,0.1124,0.1091,0.1126,0.1127,0.1146,0.115,0.1158,0.1169,0.1171,0.118,0.118,0.1181,0.1181,0,0,0,0,0,0,0,0.0942,0.095,0.103,0.1035,0.1041,0.1048,0.1056,0.1065,0.1111,0.1094,0.1098,0.111,0.1148,0.1157,0.1159,0.1171,0.1179,0.1181,0.1181,0.1182,0.1257,0.1258,0,0,0,0,0,0,0.0938,0.0946,0.1028,0.1033,0.0998,0.1049,0.1059,0.1075,0.1111,0.1119,0.1109,0.1112,0.1154,0.1158,0.1161,0.1235,0.1181,0.1182,0.1182,0.1255,0.1257,0.1258,0,0,0,0,0,0,0.0936,0.0945,0.1025,0.0993,0.1004,0.1051,0.1068,0.1076,0.111,0.1124,0.113,0.1139,0.1155,0.116,0.1207,0.1234,0.1182,0.1183,0.1254,0.1256,0.1258,0.1329,0,0,0,0,0,0,0.0932,0.0944,0.0965,0.0993,0.1006,0.1063,0.1068,0.1077,0.1115,0.112,0.115,0.1154,0.1156,0.1206,0.1208,0.1235,0.1184,0.1252,0.1255,0.1257,0.1325,0.1333,0.134,0,0,0,0,0,0.0928,0.0948,0.0965,0.0976,0.1029,0.1064,0.1072,0.1105,0.1116,0.1138,0.1169,0.1155,0.1222,0.1208,0.1211,0.1238,0.1251,0.1254,0.1257,0.1321,0.1331,0.134,0,0,0,0,0,0,0.0917,0.0956,0.0975,0.101,0.1045,0.1074,0.1098,0.1118,0.1158,0.1171,0.1178,0.1185,0.1234,0.1226,0.121,0.1266,0.1231,0.1235,0.1279,0.1289,0.1296,0.1313,0.1185,0,0,0,0,0,0.0922,0.0947,0.0987,0.1018,0.1036,0.1071,0.1093,0.112,0.1153,0.1172,0.1193,0.1216,0.1242,0.126,0.1277,0.1309,0.1319,0.1325,0.1333,0.134,0.1355,0.1405,0.1419,0.1268,0.1268,0.1268,0,0,0.092,0.0952,0.0964,0.1017,0.1045,0.1075,0.1087,0.1131,0.1164,0.117,0.1222,0.1246,0.1258,0.1302,0.1322,0.1303,0.1387,0.1343,0.1349,0.1361,0.141,0.1425,0.1438,0.127,0.127,0.1269,0,0,0.0926,0.0965,0.0985,0.1017,0.1073,0.1097,0.1114,0.116,0.1193,0.1244,0.1261,0.1314,0.1336,0.1367,0.138,0.1437,0.1427,0.143,0.1484,0.1532,0.1546,0.1557,0.1587,0.1601,0.1432,0.1433,0.1433,0,0.093,0.0962,0.0998,0.103,0.1063,0.1107,0.1141,0.1174,0.1233,0.1265,0.1271,0.1352,0.1371,0.1434,0.1464,0.1457,0.1474,0.1449,0.1544,0.1556,0.1567,0.1594,0.1609,0.1436,0.1436,0.1436,0.1435,0,0.0941,0.0979,0.0995,0.1049,0.1092,0.1129,0.1183,0.1225,0.1268,0.1306,0.1387,0.143,0.148,0.1492,0.1503,0.1587,0.1571,0.155,0.1523,0.1586,0.1611,0.1625,0.1442,0.144,0.1439,0.1438,0,0,0.0903,0.0988,0.0991,0.1026,0.111,0.1139,0.1204,0.1272,0.1316,0.1383,0.1452,0.1525,0.1562,0.1581,0.1604,0.1657,0.1758,0.1646,0.1647,0.1681,0.186,0.174,0.1742,0.1755,0.1758,0.176,0.1846,0,0.0901,0.096,0.1009,0.1065,0.1101,0.117,0.1225,0.1298,0.1362,0.1435,0.1508,0.1584,0.1588,0.1637,0.1692,0.1739,0.1798,0.1736,0.179,0.1792,0.1681,0.1756,0.1769,0.1856,0.1859,0.1861,0.1863,0,0.089,0.0932,0.0994,0.1085,0.1108,0.1154,0.1255,0.1318,0.1429,0.1482,0.1573,0.1631,0.174,0.1734,0.1851,0.1811,0.1855,0.1885,0.1888,0.1762,0.1697,0.1779,0.1887,0.1886,0.1884,0.1882,0.1881,0,0.0834,0.0919,0.0973,0.1001,0.1108,0.1156,0.1227,0.1338,0.1409,0.1536,0.1597,0.1706,0.1791,0.1854,0.1927,0.1903,0.2044,0.2005,0.1937,0.1928,0.1979,0.1965,0.2106,0.2105,0.2105,0.2105,0.2105,0,0.081,0.0837,0.0953,0.0968,0.1031,0.1141,0.1234,0.1296,0.1441,0.1525,0.1633,0.1706,0.1834,0.1922,0.1959,0.1986,0.2067,0.1968,0.1952,0.2004,0.1993,0.1988,0.1973,0.2108,0.2108,0.2107,0.2106,0,0.0725,0.0809,0.084,0.0951,0.1006,0.1045,0.1229,0.1282,0.1433,0.1548,0.1603,0.1752,0.1851,0.1946,0.2064,0.2023,0.2061,0.2057,0.2117,0.2099,0.1904,0.1892,0.1976,0.1973,0.197,0.1968,0.1966,0,0.0684,0.0698,0.0795,0.0821,0.0871,0.0986,0.1061,0.1246,0.1319,0.1549,0.1578,0.1753,0.1832,0.1896,0.1991,0.2049,0.2038,0.2041,0.197,0.192,0.1897,0.1889,0.1881,0.1961,0.1961,0.196,0.1959,0,0.0574,0.0607,0.0646,0.0703,0.0772,0.086,0.0996,0.1052,0.127,0.1414,0.1543,0.1639,0.1751,0.1832,0.1907,0.1937,0.2019,0.2011,0.2016,0.1949,0.1903,0.188,0.1876,0.1949,0.1951,0.1952,0.1952,0,0.0483,0.0476,0.0545,0.0587,0.0657,0.0721,0.0813,0.0952,0.1084,0.1349,0.1384,0.1566,0.1727,0.1776,0.1829,0.1862,0.1836,0.1779,0.1796,0.1807,0.1714,0.1627,0.1595,0,0,0,0,0,0.0405,0.0419,0.0435,0.0493,0.0544,0.0607,0.0764,0.0873,0.1091,0.1141,0.1284,0.1387,0.1517,0.1606,0.1608,0.1731,0.1816,0.1725,0.175,0.1895,0.1906,0.1812,0,0,0,0,0,0,0.0367,0.0391,0.0413,0.0419,0.043,0.0514,0.0602,0.0744,0.0813,0.1027,0.1104,0.1284,0.1417,0.1492,0.157,0.1599,0.1586,0.185,0.1846,0.1889,0.1899,0.1908,0.1815,0,0,0,0,0]},{"header":{"parameterUnit":"m.s-1","parameterCategory":2,"la1":30.2991,"la2":30.254,"lo1":-89.0895,"lo2":-89.0444,"dy":0.0017,"dx":0.0017,"nx":28,"ny":28,"refTime":"2025-04-12T09:00:00:Z","depth":"4","parameterNumber":3,"parameterNumberName":"V-component_of_CURRENTS"},"data":[0,0,0,0,0,0,0,0,0,0,0,0,0,0,0,0,0,0,0,0,0,0,0,0,0,0,0,0,0,0,0,0,0,0,0,0,0,0,0,0,0,0,0,0,0,0,0,0,0,0,0,0,0,0,0,0,0,0,0.0124,0.0123,0,0.0074,0.0074,0.0073,0.0044,0.0044,0.0044,0.0044,0.006,0.0061,0.0062,0,0,0,0,0,0,0,0,0,0,0,0,0,0.0165,0.0164,0.0124,0.0123,0.0122,0.0074,0.0073,0.0073,0.0044,0.0044,0.0044,0.0044,0.006,0.0061,0.0062,0,0,0,0,0,0,0,0,0,0,0,0,0,0.0135,0.0164,0.0124,0.0102,0.0099,0.0074,0.0073,0.0073,0.0044,0.0044,0.0044,0.0044,0.006,0.0061,0.0062,0.0072,0,0,0.0064,0.0065,0,0,0,0,0,0,0,0,0.0137,0.0133,0.0106,0.0103,0.01,0.0065,0.0094,0.0076,0.0044,0.0066,0.0044,0.0043,0.0068,0.0068,0.0059,0.0073,0.0073,0.0064,0.0065,0.0065,0.0066,0,0,0,0,0,0,0,0.0139,0.0135,0.0104,0.0105,0.0102,0.0085,0.008,0.009,0.007,0.0064,0.0061,0.0055,0.0067,0.0058,0.0059,0.0074,0.0064,0.0065,0.0066,0.0066,0.0102,0.0102,0,0,0,0,0,0,0.0146,0.0137,0.0106,0.0103,0.0118,0.0084,0.0079,0.0077,0.0069,0.0066,0.0055,0.0054,0.0057,0.0058,0.006,0.0065,0.0065,0.0066,0.0067,0.0101,0.0102,0.0102,0,0,0,0,0,0,0.0147,0.0143,0.0108,0.0118,0.0113,0.0084,0.0081,0.0076,0.0064,0.0062,0.0061,0.0048,0.0057,0.0059,0.0054,0.0066,0.0067,0.0067,0.0101,0.0101,0.0102,0.008,0,0,0,0,0,0,0.0148,0.0144,0.0143,0.0119,0.0112,0.0096,0.0081,0.0075,0.006,0.0058,0.0055,0.0056,0.0057,0.0052,0.0055,0.0067,0.0068,0.01,0.0101,0.0102,0.008,0.0079,0.0079,0,0,0,0,0,0.015,0.0152,0.0143,0.0139,0.0112,0.0096,0.0091,0.007,0.006,0.0057,0.0044,0.0056,0.006,0.0052,0.0055,0.0068,0.01,0.0101,0.0102,0.008,0.008,0.0079,0,0,0,0,0,0,0.0166,0.0149,0.0138,0.0134,0.0116,0.0091,0.0086,0.007,0.0056,0.0055,0.005,0.005,0.0051,0.0065,0.0057,0.0083,0.0088,0.0089,0.007,0.007,0.0069,0.0083,0.0069,0,0,0,0,0,0.017,0.0169,0.0146,0.0142,0.0136,0.011,0.01,0.0086,0.007,0.0063,0.0058,0.0059,0.0059,0.0066,0.0067,0.0081,0.0073,0.0096,0.0096,0.0095,0.0109,0.0089,0.0088,0.0105,0.0105,0.0105,0,0,0.0176,0.0165,0.0164,0.0146,0.0131,0.013,0.0104,0.0092,0.0091,0.007,0.0068,0.0052,0.0059,0.0063,0.0068,0.0076,0.0083,0.0096,0.0096,0.0111,0.009,0.0088,0.0087,0.0106,0.0106,0.0106,0,0,0.019,0.0177,0.0183,0.0174,0.0155,0.0141,0.0139,0.0114,0.0103,0.0094,0.0076,0.0062,0.0072,0.0068,0.0071,0.0076,0.0073,0.0086,0.0103,0.0083,0.0081,0.0079,0.0047,0.0042,0.0095,0.0095,0.0095,0,0.0194,0.0203,0.0181,0.0185,0.0183,0.0151,0.0159,0.0144,0.0119,0.0113,0.0098,0.0082,0.0077,0.0081,0.0076,0.0075,0.0058,0.0099,0.008,0.0079,0.0077,0.0045,0.004,0.0094,0.0094,0.0094,0.0094,0,0.0217,0.0223,0.0227,0.0226,0.0218,0.0221,0.02,0.0192,0.0172,0.0152,0.0137,0.011,0.0104,0.0099,0.0087,0.0083,0.0069,0.007,0.0076,0.0074,0.004,0.0035,0.0093,0.0093,0.0093,0.0094,0,0,0.0234,0.0242,0.0245,0.0256,0.0243,0.0242,0.0243,0.0233,0.0236,0.0199,0.0196,0.0168,0.0139,0.0141,0.0118,0.0101,0.0056,0.0083,0.0083,0.0043,-0.0003,-0.0036,-0.0044,0.0046,0.0046,0.0046,-0.0031,0,0.026,0.0285,0.028,0.0307,0.032,0.03,0.0308,0.0292,0.0268,0.0255,0.0213,0.02,0.016,0.0151,0.0122,0.0077,0.0048,0.0076,0.0015,0.0014,-0.0023,-0.0048,0.0045,-0.0034,-0.0035,-0.0036,-0.0036,0,0.0288,0.0305,0.0334,0.0357,0.0361,0.0373,0.038,0.0379,0.035,0.033,0.0294,0.0254,0.0213,0.0183,0.0098,0.0115,0.0057,0.0018,0.0014,-0.0005,-0.0026,-0.0024,-0.0044,-0.0044,-0.0043,-0.0043,-0.0042,0,0.0315,0.0344,0.0371,0.0378,0.0395,0.0411,0.042,0.0404,0.0411,0.0374,0.0368,0.0302,0.0276,0.0197,0.0093,0.0096,-0.0005,-0.0008,-0.0094,-0.0097,-0.0035,-0.0032,-0.0066,-0.0065,-0.0065,-0.0065,-0.0065,0,0.0342,0.0367,0.0393,0.041,0.0453,0.045,0.0488,0.0477,0.0474,0.0477,0.0408,0.0389,0.0279,0.0199,0.0104,-0.0019,-0.0003,-0.0095,-0.0118,-0.0045,-0.0042,-0.004,-0.0036,-0.0068,-0.0067,-0.0067,-0.0066,0,0.0351,0.037,0.0409,0.0448,0.0466,0.0493,0.054,0.0563,0.0551,0.0553,0.0543,0.0456,0.0342,0.0219,0.0086,0.0002,-0.011,-0.0156,-0.0083,-0.0099,-0.0191,-0.0187,-0.0253,-0.0255,-0.0256,-0.0258,-0.0259,0,0.0349,0.0368,0.0433,0.0461,0.048,0.0532,0.0571,0.0596,0.0609,0.0585,0.0577,0.0481,0.0402,0.0188,0.0055,-0.0136,-0.016,-0.0219,-0.0196,-0.0195,-0.021,-0.0204,-0.0198,-0.0261,-0.0261,-0.0262,-0.0262,0,0.0337,0.0363,0.0396,0.0461,0.0514,0.058,0.0629,0.0649,0.0662,0.0668,0.0598,0.0482,0.0348,0.0176,0.0022,-0.0112,-0.018,-0.0235,-0.0232,-0.0211,-0.0205,-0.0217,-0.021,-0.0267,-0.0267,-0.0266,-0.0266,0,0.0318,0.0339,0.0386,0.044,0.0512,0.0579,0.0626,0.0644,0.0669,0.0641,0.0616,0.0477,0.0403,0.0187,0.0044,-0.0095,-0.0123,-0.0156,-0.0158,-0.0154,-0.0105,-0.0083,-0.0129,0,0,0,0,0,0.0288,0.0308,0.0357,0.0421,0.0497,0.0544,0.063,0.0671,0.0699,0.0655,0.0636,0.0507,0.029,0.0196,0.0051,0.0007,-0.0155,-0.0168,-0.0195,-0.0296,-0.029,-0.0254,0,0,0,0,0,0,0.0263,0.0302,0.0339,0.0394,0.0429,0.0521,0.0582,0.0616,0.0591,0.0596,0.0484,0.0452,0.0241,0.0357,0.0034,-0.0007,-0.0045,-0.0261,-0.0264,-0.03,-0.0294,-0.0289,-0.025,0,0,0,0,0]}]]